Regional Weather Roundup
Issued by NWS Newport/Morehead, NC

Current Version | Previous Version | Graphics & Text | Print | Product List | Glossary Off
Versions: 1 2 3 4 5 6 7 8 9 10 11 12 13 14 15 16 17 18 19 20 21 22 23 24 25 26 27 28 29 30 31 32 33 34 35 36 37 38 39 40 41 42 43 44 45 46 47 48 49 50

000
ASUS42 KMHX 051325
RWRMHX
WEATHER ROUNDUP FOR EASTERN NORTH CAROLINA
NATIONAL WEATHER SERVICE NEWPORT/MOREHEAD CITY NC
900 AM EDT SUN JUL 05 2015

NOTE: "FAIR" INDICATES FEW OR NO CLOUDS BELOW 12,000 FEET
WITH NO SIGNIFICANT WEATHER AND/OR OBSTRUCTIONS TO VISIBILITY

NCZ015>017-031-032-045>047-102-103-051400-
NORTH COAST

CITY           SKY/WX    TMP DP  RH WIND       PRES   REMARKS
EDENTON        MOSUNNY   77  72  83 NW5       30.12S
ELIZABETH CITY MOSUNNY   78  73  84 W8        30.12R
KITTY HAWK     PTSUNNY   79  73  81 SW5       30.12R
MANTEO         CLOUDY    78  74  86 W6        30.13S

$$

NCZ045>047-081-094-103-104-051400-
CENTRAL COAST

CITY           SKY/WX    TMP DP  RH WIND       PRES   REMARKS
FRISCO         CLOUDY    78  73  84 SW9       30.15R
SWANQUARTER      N/A     81 N/A N/A SW8G14    30.09S

$$

NCZ095-097-098-100-101-051400-
SOUTHERN COAST

CITY           SKY/WX    TMP DP  RH WIND       PRES   REMARKS
BEAUFORT       MOSUNNY   82  70  66 SW15      30.15R
CEDAR ISLAND     N/A     82 N/A N/A SW6G13    30.18S
JACKSONVILLE   CLOUDY    78  68  71 SW8       30.14R
PINEY ISLAND   PTSUNNY  N/A N/A N/A SW9       30.14R
WILMINGTON     CLOUDY    78  69  73 SW8       30.16R


$$

NCZ011>013-027>030-043-044-078>080-089-090>093-098-051400-
COASTAL PLAIN

CITY           SKY/WX    TMP DP  RH WIND       PRES   REMARKS
AHOSKIE        MOSUNNY  N/A N/A N/A CALM      30.12S HAZE
CLINTON        MOSUNNY   79  71  76 SW3       30.14R
ELIZABETHTOWN  SUNNY     78  69  74 SW6       30.14S
GOLDSBORO      MOSUNNY   79  71  75 SW6       30.11R
GREENVILLE     CLOUDY    77  73  88 W5        30.13S
HAVELOCK       PTSUNNY   80  69  69 SW8       30.16R
KENANSVILLE    PTSUNNY   78  68  69 SW3       30.14F
KINSTON        PTSUNNY   79  70  73 SW5       30.14R
NEW BERN       CLOUDY    79  70  74 SW7       30.15R
RICHLANDS      CLOUDY    79  66  65 S8        30.15S
ROCKY MOUNT    MOSUNNY   80  73  79 S9        30.12R
WASHINGTON     CLOUDY    78  73  83 SW5       30.14R
WHITEVILLE     MOSUNNY   76  69  79 S5        30.15S

$$

AMZ130-135-150-152-154-156-158-170-250-252-270-ANZ085-086-088-633-658-670-051400-
MARINE OBSERVATIONS

STATION/POSITION TIME  TEMP    WIND        PRES    WAVE   SWELL
                       AIR SEA DIR/SP/G            HT/PER HT/PER
                 (UTC) (F)     (DEG/KT/KT) (MB)    (FT/S) (FT/S)
CHESAPEAKE LIGHT 1300   75      20/  6/  6 1020.6
64 E VA BEACH    1250   77 76  360/  4/  4 1019.2    4/ 7   3/ 7
DUCK             1300   79 74  260/  7/  8   N/A
2 E DUCK         1211      77                N/A     2/ 6
OREGON INLET     1300   79 79  230/ 10/ 12 1020.2
13E OREGON INLT  1300      76                N/A     4/ 6
HATTERAS CG      1300   80 79  230/  8/ 12 1020.5
DIAMOND BUOY     1250   80 81  240/ 16/ 19 1020.2    4/ 6   2/ 8
CAPE LOOKOUT     1300   81     220/ 10/ 12 1020.9
BEAUFORT LAB     1300   81 80  230/  5/ 12 1020.4
30 SE NEW RVR IN NOT AVBL
27 SE WRIGHTSVLE 1300      80  250/ 12/ 14   N/A
5 SE WRIGHTSVLE  1208   78 78  260/  8/ 10 1021.1
225 S CAPE HAT   1250   79 80  270/ 10/ 14 1023.2    4/ 6   3/ 6
41 SE CHARLESTON 1250   81 81  230/ 10/ 12 1021.0    3/ 9   2/ 9

$$


USA.gov is the U.S. government's official web portal to all federal, state and local government web resources and services.